Location: Moscow
(55.7500°N, 37.5830°E)
Time: 18:24:58
(UTC+03:00)

ISS - Pass Details

Date: 22 March 2026
Orbit: 416 x 425 km, 51.6° (Epoch: 19 April)

Event Time Altitude Azimuth Distance (km) Brightness Sun altitude
Rises 19:33:24 0° 265° (W) 2,389 1.8 -7.3°
Reaches altitude 10° 19:35:35 10° 258° (WSW) 1,521 0.3 -7.6°
Maximum altitude 19:38:47 39° 188° (S) 656 -2.8 -8.0°
Enters shadow 19:41:50 11° 119° (ESE) 1,457 -1.6 -8.4°
